Salina, KS

10:29 PM CDT on March 24, 2017 (GMT -0500)
Salina Municipal

Weather History for KSLN - January, 2012

Change the Weather History Date:

Monday, January 16, 2012

  Actual Average Record
Temperature  
Mean Temperature 35 °F 31 °F  
Max Temperature 47 °F 42 °F 69 °F (1951)
Min Temperature 23 °F 20 °F -9 °F (1905)
Degree Days  
Heating Degree Days 30 34  
Month to date heating degree days 452 544  
Since 1 July heating degree days 2337 2508  
Moisture  
Dew Point 26 °F    
Average Humidity 73    
Maximum Humidity 100    
Minimum Humidity 45    
Precipitation  
Precipitation T in 0.02 in 0.30 in (1987)
Month to date precipitation T 0.26  
Year to date precipitation T 0.26  
Sea Level Pressure  
Sea Level Pressure 29.75 in    
Wind  
Wind Speed 12 mph (NW)    
Max Wind Speed 29 mph    
Max Gust Speed 37 mph    
Visibility 10 miles    
Events Snow    
T = Trace of Precipitation, MM = Missing Value Source: NWS Daily Summary

Daily Weather History Graph

Daily Weather History Graph

Search for Another Location

Airport or City:

Trip Planner

Search our weather history database for the weather conditions in past years. The results will help you decide how hot, cold, wet, or windy it might be!

Date:

Astronomy

Jan. 16, 2012 Rise Set
Actual Time 7:47 AM CST 5:33 PM CST
Civil Twilight 7:18 AM CST 6:02 PM CST
Nautical Twilight 6:45 AM CST 6:35 PM CST
Astronomical Twilight 6:13 AM CST 7:07 PM CST
Moon 12:58 AM CST (1/16) 11:47 AM CST (1/16)
Length of Visible Light 10h 44m
Length of Day
9h 46m
Last Quarter, 46% of the Moon is Illuminated
Jan 16
Last Quarter
Jan 23
New
Jan 30
First Quarter
Feb 7
Full
Feb 14
Last Quarter

Hourly Weather History & Observations

Time (CST) Temp. Windchill Dew Point Humidity Pressure Visibility Wind Dir Wind Speed Gust Speed Precip Events Conditions
12:53 AM 41.0 °F 35.8 °F 33.1 °F 73% 29.68 in 10.0 mi South 8.1 mph - N/A   Clear
1:53 AM 36.0 °F 30.3 °F 30.9 °F 82% 29.65 in 10.0 mi South 6.9 mph - N/A   Clear
2:53 AM 42.1 °F 35.7 °F 36.0 °F 79% 29.64 in 10.0 mi South 11.5 mph - N/A   Clear
3:53 AM 37.0 °F 31.0 °F 34.0 °F 89% 29.61 in 10.0 mi South 8.1 mph - N/A   Clear
4:53 AM 32.0 °F 26.4 °F 28.9 °F 88% 29.64 in 10.0 mi NW 5.8 mph - N/A   Clear
5:53 AM 28.9 °F 23.9 °F 28.0 °F 96% 29.65 in 10.0 mi WNW 4.6 mph - N/A   Clear
6:53 AM 25.0 °F 20.7 °F 24.1 °F 96% 29.67 in 10.0 mi West 3.5 mph - N/A   Clear
7:53 AM 27.0 °F 19.5 °F 24.1 °F 89% 29.69 in 10.0 mi WNW 6.9 mph - N/A   Clear
8:53 AM 28.9 °F 18.6 °F 26.1 °F 89% 29.72 in 10.0 mi WNW 12.7 mph - N/A   Clear
9:53 AM 34.0 °F 24.2 °F 26.1 °F 73% 29.75 in 10.0 mi NW 15.0 mph - N/A   Clear
10:53 AM 37.9 °F 30.5 °F 27.0 °F 65% 29.76 in 10.0 mi NW 11.5 mph - N/A   Clear
11:53 AM 42.1 °F 35.7 °F 28.0 °F 58% 29.76 in 10.0 mi NNW 11.5 mph - N/A   Clear
12:53 PM 44.1 °F 38.6 °F 28.0 °F 53% 29.75 in 10.0 mi NNW 10.4 mph - N/A   Clear
1:53 PM 46.0 °F 41.4 °F 28.0 °F 50% 29.73 in 10.0 mi WNW 9.2 mph - N/A   Clear
2:53 PM 46.0 °F 41.0 °F 27.0 °F 47% 29.73 in 10.0 mi NNW 10.4 mph - N/A   Clear
3:53 PM 45.0 °F 40.6 °F 27.0 °F 49% 29.76 in 10.0 mi NNW 8.1 mph - N/A   Clear
4:53 PM 42.1 °F 36.1 °F 27.0 °F 55% 29.77 in 10.0 mi NNW 10.4 mph - N/A   Clear
5:53 PM 37.0 °F 32.4 °F 26.1 °F 65% 29.77 in 10.0 mi North 5.8 mph - N/A   Clear
6:53 PM 36.0 °F 26.7 °F 24.1 °F 62% 29.79 in 10.0 mi North 15.0 mph - N/A   Scattered Clouds
7:53 PM 33.8 °F 22.8 °F 21.2 °F 60% 29.77 in 10.0 mi North 18.4 mph - N/A   Overcast
8:53 PM 30.9 °F 19.4 °F 19.0 °F 61% 29.81 in 10.0 mi North 17.3 mph - N/A   Mostly Cloudy
9:53 PM 28.9 °F 16.1 °F 17.1 °F 61% 29.86 in 10.0 mi North 19.6 mph - N/A   Overcast
10:53 PM 27.0 °F 12.8 °F 12.9 °F 56% 29.94 in 9.0 mi NNW 21.9 mph 34.5 mph 0.00 in Snow Light Snow
11:53 PM 24.1 °F 8.0 °F 12.9 °F 62% 29.99 in 9.0 mi NNW 25.3 mph 32.2 mph 0.00 in Snow Light Snow